STARLINK-5757 (55580 NORAD) Tracking and Keplerian Element Data

This shows tracking and keplerian element data for the satellite.

Feedback or suggestion? Click here.




ElementValue
Catalog55580
NameSTARLINK-5757
Epoch Orbit660
Epoch Day85.09144179
Epoch Year2023
RAAN103.5019
Inclination43.0001
Eccentricity0.0001128
Argument of Perigee240.0989
Mean Anonmoly119.9767
Mean Motion15.71410861
Decay Rate0.00014563
L11 55580U 23020M 23085.09144179 .00014563 00000+0 11404-3 0 9994
L22 55580 43.0001 103.5019 0001128 240.0989 119.9767 15.71410861 6602



Live tracking and technical data element details for STARLINK-5757 (NORAD 55580). STARLINK-5757 can be tracked NOW for your location showing map with azimuth and elevation plus other details from your city location.







IsCatalogInMostPopularTable: catalog: 55580, numindb: -1

Insert: records affected: 1


GetName: 55580 STARLINK-5757

Hit Count: inserted at: Tue, 28 Mar 2023 01:33:46 GMT